owner,sensor,date,latitude,longitude,vertical_datum,wind_speed,wind_to_direction,wind_speed_of_gust,qcFlag 
TCOON,ioos:station:TCOON:006:1,2008-11-01T00:00:00Z,27.8217,-97.2040,0.0,1.7,72.0,2.5,'11111222,11111222,11111222' 
TCOON,ioos:station:TCOON:006:1,2008-11-01T02:00:00Z,27.8217,-97.2040,0.0,2.4,64.0,3.3,'11111222,11111222,11111222' 
TCOON,ioos:station:TCOON:006:1,2008-11-01T03:00:00Z,27.8217,-97.2040,0.0,1.7,62.0,1.8,'11111222,11111222,11111222' 
TCOON,ioos:station:TCOON:006:1,2008-11-01T04:00:00Z,27.8217,-97.2040,0.0,1.2,51.0,1.6,'11111222,11111222,11111222' 
TCOON,ioos:station:TCOON:006:1,2008-11-01T05:00:00Z,27.8217,-97.2040,0.0,1.8,91.0,3.1,'11111222,11111222,11111222' 
TCOON,ioos:station:TCOON:006:1,2008-11-01T06:00:00Z,27.8217,-97.2040,0.0,1.5,80.0,2.2,'11111222,11111222,11111222' 
TCOON,ioos:station:TCOON:006:1,2008-11-01T07:00:00Z,27.8217,-97.2040,0.0,1.5,100.0,2.4,'11111222,11111222,11111222' 
TCOON,ioos:station:TCOON:006:1,2008-11-01T08:00:00Z,27.8217,-97.2040,0.0,0.7,61.0,0.8,'11111222,11111222,11111222' 
TCOON,ioos:station:TCOON:006:1,2008-11-01T09:00:00Z,27.8217,-97.2040,0.0,1.5,356.0,1.7,'11111222,11111222,11111222' 
TCOON,ioos:station:TCOON:006:1,2008-11-01T10:00:00Z,27.8217,-97.2040,0.0,1.3,4.0,2.1,'11111222,11111222,11111222' 
TCOON,ioos:station:TCOON:006:1,2008-11-01T11:00:00Z,27.8217,-97.2040,0.0,0.8,10.0,1.6,'11111222,11111222,11111222' 
TCOON,ioos:station:TCOON:006:1,2008-11-01T12:00:00Z,27.8217,-97.2040,0.0,1.1,1.0,1.6,'11111222,11111222,11111222' 
TCOON,ioos:station:TCOON:006:1,2008-11-01T13:00:00Z,27.8217,-97.2040,0.0,1.4,20.0,2.3,'11111222,11111222,11111222' 
TCOON,ioos:station:TCOON:006:1,2008-11-01T14:00:00Z,27.8217,-97.2040,0.0,1.8,74.0,2.9,'11111222,11111222,11111222' 
TCOON,ioos:station:TCOON:006:1,2008-11-01T15:00:00Z,27.8217,-97.2040,0.0,2.7,71.0,3.7,'11111222,11111222,11111222' 
TCOON,ioos:station:TCOON:006:1,2008-11-01T16:00:00Z,27.8217,-97.2040,0.0,1.8,106.0,2.6,'11111222,11111222,11111222' 
TCOON,ioos:station:TCOON:006:1,2008-11-01T17:00:00Z,27.8217,-97.2040,0.0,1.6,92.0,2.6,'11111222,11111222,11111222' 
TCOON,ioos:station:TCOON:006:1,2008-11-01T18:00:00Z,27.8217,-97.2040,0.0,2.4,125.0,3.6,'11111222,11111222,11111222' 
TCOON,ioos:station:TCOON:006:1,2008-11-01T19:00:00Z,27.8217,-97.2040,0.0,3.0,114.0,5.0,'11111222,11111222,11111222' 
TCOON,ioos:station:TCOON:006:1,2008-11-01T20:00:00Z,27.8217,-97.2040,0.0,3.2,116.0,5.0,'11111222,11111222,11111222' 
TCOON,ioos:station:TCOON:006:1,2008-11-01T21:00:00Z,27.8217,-97.2040,0.0,2.9,118.0,3.9,'11111222,11111222,11111222' 
TCOON,ioos:station:TCOON:006:1,2008-11-01T22:00:00Z,27.8217,-97.2040,0.0,3.1,96.0,5.0,'11111222,11111222,11111222' 
TCOON,ioos:station:TCOON:006:1,2008-11-01T23:00:00Z,27.8217,-97.2040,0.0,3.1,94.0,4.7,'11111222,11111222,11111222' 
TCOON,ioos:station:TCOON:006:1,2008-11-02T00:00:00Z,27.8217,-97.2040,0.0,3.0,90.0,4.4,'11111222,11111222,11111222' 
TCOON,ioos:station:TCOON:006:1,2008-11-02T01:00:00Z,27.8217,-97.2040,0.0,1.4,125.0,3.0,'11111222,11111222,11111222' 
TCOON,ioos:station:TCOON:006:1,2008-11-02T02:00:00Z,27.8217,-97.2040,0.0,2.1,108.0,2.7,'11111222,11111222,11111222' 
TCOON,ioos:station:TCOON:006:1,2008-11-02T03:00:00Z,27.8217,-97.2040,0.0,1.5,140.0,2.3,'11111222,11111222,11111222' 
TCOON,ioos:station:TCOON:006:1,2008-11-02T04:00:00Z,27.8217,-97.2040,0.0,1.2,107.0,2.0,'11111222,11111222,11111222' 
TCOON,ioos:station:TCOON:006:1,2008-11-02T05:00:00Z,27.8217,-97.2040,0.0,0.8,130.0,1.3,'11111222,11111222,11111222' 
TCOON,ioos:station:TCOON:006:1,2008-11-02T06:00:00Z,27.8217,-97.2040,0.0,2.3,121.0,2.9,'11111222,11111222,11111222' 
TCOON,ioos:station:TCOON:006:1,2008-11-02T07:00:00Z,27.8217,-97.2040,0.0,1.8,135.0,2.5,'11111222,11111222,11111222' 
TCOON,ioos:station:TCOON:006:1,2008-11-02T08:00:00Z,27.8217,-97.2040,0.0,2.6,118.0,3.5,'11111222,11111222,11111222' 
TCOON,ioos:station:TCOON:006:1,2008-11-02T09:00:00Z,27.8217,-97.2040,0.0,2.5,123.0,3.1,'11111222,11111222,11111222' 
TCOON,ioos:station:TCOON:006:1,2008-11-02T10:00:00Z,27.8217,-97.2040,0.0,1.2,102.0,2.7,'11111222,11111222,11111222' 
TCOON,ioos:station:TCOON:006:1,2008-11-02T11:00:00Z,27.8217,-97.2040,0.0,1.6,126.0,2.4,'11111222,11111222,11111222' 
TCOON,ioos:station:TCOON:006:1,2008-11-02T12:00:00Z,27.8217,-97.2040,0.0,1.4,99.0,2.6,'11111222,11111222,11111222' 
TCOON,ioos:station:TCOON:006:1,2008-11-02T13:00:00Z,27.8217,-97.2040,0.0,0.8,109.0,1.4,'11111222,11111222,11111222' 
TCOON,ioos:station:TCOON:006:1,2008-11-02T14:00:00Z,27.8217,-97.2040,0.0,1.0,127.0,1.4,'11111222,11111222,11111222' 
TCOON,ioos:station:TCOON:006:1,2008-11-02T15:00:00Z,27.8217,-97.2040,0.0,1.4,119.0,2.0,'11111222,11111222,11111222' 
TCOON,ioos:station:TCOON:006:1,2008-11-02T16:00:00Z,27.8217,-97.2040,0.0,2.2,126.0,2.9,'11111222,11111222,11111222' 
TCOON,ioos:station:TCOON:006:1,2008-11-02T17:00:00Z,27.8217,-97.2040,0.0,2.7,128.0,3.2,'11111222,11111222,11111222' 
TCOON,ioos:station:TCOON:006:1,2008-11-02T18:00:00Z,27.8217,-97.2040,0.0,3.0,115.0,3.7,'11111222,11111222,11111222' 
TCOON,ioos:station:TCOON:006:1,2008-11-02T19:00:00Z,27.8217,-97.2040,0.0,3.1,124.0,4.0,'11111222,11111222,11111222' 
TCOON,ioos:station:TCOON:006:1,2008-11-02T20:00:00Z,27.8217,-97.2040,0.0,3.5,119.0,4.1,'11111222,11111222,11111222' 
TCOON,ioos:station:TCOON:006:1,2008-11-02T21:00:00Z,27.8217,-97.2040,0.0,4.1,115.0,5.1,'11111222,11111222,11111222' 
TCOON,ioos:station:TCOON:006:1,2008-11-02T22:00:00Z,27.8217,-97.2040,0.0,3.6,83.0,4.9,'11111222,11111222,11111222' 
TCOON,ioos:station:TCOON:006:1,2008-11-02T23:00:00Z,27.8217,-97.2040,0.0,3.4,84.0,5.2,'11111222,11111222,11111222' 
TCOON,ioos:station:TCOON:006:1,2008-11-03T00:00:00Z,27.8217,-97.2040,0.0,3.2,98.0,4.5,'11111222,11111222,11111222' 
TCOON,ioos:station:TCOON:006:1,2008-11-03T01:00:00Z,27.8217,-97.2040,0.0,3.4,105.0,5.6,'11111222,11111222,11111222' 
TCOON,ioos:station:TCOON:006:1,2008-11-03T02:00:00Z,27.8217,-97.2040,0.0,4.5,112.0,5.9,'11111222,11111222,11111222' 
TCOON,ioos:station:TCOON:006:1,2008-11-03T03:00:00Z,27.8217,-97.2040,0.0,4.4,121.0,6.2,'11111222,11111222,11111222' 
TCOON,ioos:station:TCOON:006:1,2008-11-03T04:00:00Z,27.8217,-97.2040,0.0,4.7,118.0,6.1,'11111222,11111222,11111222' 
TCOON,ioos:station:TCOON:006:1,2008-11-03T05:00:00Z,27.8217,-97.2040,0.0,4.2,111.0,6.2,'11111222,11111222,11111222' 
TCOON,ioos:station:TCOON:006:1,2008-11-03T06:00:00Z,27.8217,-97.2040,0.0,4.6,127.0,5.7,'11111222,11111222,11111222' 
TCOON,ioos:station:TCOON:006:1,2008-11-03T07:00:00Z,27.8217,-97.2040,0.0,3.1,111.0,4.5,'11111222,11111222,11111222' 
TCOON,ioos:station:TCOON:006:1,2008-11-03T08:00:00Z,27.8217,-97.2040,0.0,3.2,138.0,4.1,'11111222,11111222,11111222' 
TCOON,ioos:station:TCOON:006:1,2008-11-03T09:00:00Z,27.8217,-97.2040,0.0,2.3,155.0,3.2,'11111222,11111222,11111222' 
TCOON,ioos:station:TCOON:006:1,2008-11-03T10:00:00Z,27.8217,-97.2040,0.0,2.5,155.0,3.5,'11111222,11111222,11111222' 
TCOON,ioos:station:TCOON:006:1,2008-11-03T11:00:00Z,27.8217,-97.2040,0.0,1.6,121.0,2.3,'11111222,11111222,11111222' 
TCOON,ioos:station:TCOON:006:1,2008-11-03T12:00:00Z,27.8217,-97.2040,0.0,2.9,123.0,3.5,'11111222,11111222,11111222' 
TCOON,ioos:station:TCOON:006:1,2008-11-03T13:00:00Z,27.8217,-97.2040,0.0,2.6,105.0,3.8,'11111222,11111222,11111222' 
TCOON,ioos:station:TCOON:006:1,2008-11-03T14:00:00Z,27.8217,-97.2040,0.0,3.3,116.0,4.0,'11111222,11111222,11111222' 
TCOON,ioos:station:TCOON:006:1,2008-11-03T15:00:00Z,27.8217,-97.2040,0.0,3.5,109.0,4.8,'11111222,11111222,11111222' 
TCOON,ioos:station:TCOON:006:1,2008-11-03T16:00:00Z,27.8217,-97.2040,0.0,2.9,99.0,5.4,'11111222,11111222,11111222' 
TCOON,ioos:station:TCOON:006:1,2008-11-03T17:00:00Z,27.8217,-97.2040,0.0,4.5,113.0,6.3,'11111222,11111222,11111222' 
TCOON,ioos:station:TCOON:006:1,2008-11-03T18:00:00Z,27.8217,-97.2040,0.0,4.5,93.0,6.2,'11111222,11111222,11111222' 
TCOON,ioos:station:TCOON:006:1,2008-11-03T19:00:00Z,27.8217,-97.2040,0.0,4.3,98.0,7.2,'11111222,11111222,11111222' 
TCOON,ioos:station:TCOON:006:1,2008-11-03T20:00:00Z,27.8217,-97.2040,0.0,5.0,106.0,8.5,'11111222,11111222,11111222' 
TCOON,ioos:station:TCOON:006:1,2008-11-03T21:00:00Z,27.8217,-97.2040,0.0,4.2,98.0,7.4,'11111222,11111222,11111222' 
TCOON,ioos:station:TCOON:006:1,2008-11-03T22:00:00Z,27.8217,-97.2040,0.0,5.7,82.0,7.4,'11111222,11111222,11111222' 
TCOON,ioos:station:TCOON:006:1,2008-11-03T23:00:00Z,27.8217,-97.2040,0.0,4.4,89.0,6.4,'11111222,11111222,11111222' 
TCOON,ioos:station:TCOON:006:1,2008-11-04T00:00:00Z,27.8217,-97.2040,0.0,4.9,87.0,6.6,'11111222,11111222,11111222' 
TCOON,ioos:station:TCOON:006:1,2008-11-04T01:00:00Z,27.8217,-97.2040,0.0,4.1,98.0,5.7,'11111222,11111222,11111222' 
TCOON,ioos:station:TCOON:006:1,2008-11-04T02:00:00Z,27.8217,-97.2040,0.0,3.5,108.0,5.2,'11111222,11111222,11111222' 
TCOON,ioos:station:TCOON:006:1,2008-11-04T03:00:00Z,27.8217,-97.2040,0.0,3.3,106.0,5.6,'11111222,11111222,11111222' 
TCOON,ioos:station:TCOON:006:1,2008-11-04T04:00:00Z,27.8217,-97.2040,0.0,5.1,119.0,6.4,'11111222,11111222,11111222' 
TCOON,ioos:station:TCOON:006:1,2008-11-04T05:00:00Z,27.8217,-97.2040,0.0,3.9,132.0,5.6,'11111222,11111222,11111222' 
TCOON,ioos:station:TCOON:006:1,2008-11-04T06:00:00Z,27.8217,-97.2040,0.0,4.1,133.0,6.3,'11111222,11111222,11111222' 
TCOON,ioos:station:TCOON:006:1,2008-11-04T07:00:00Z,27.8217,-97.2040,0.0,4.1,137.0,5.7,'11111222,11111222,11111222' 
TCOON,ioos:station:TCOON:006:1,2008-11-04T08:00:00Z,27.8217,-97.2040,0.0,3.6,131.0,5.0,'11111222,11111222,11111222' 
TCOON,ioos:station:TCOON:006:1,2008-11-04T09:00:00Z,27.8217,-97.2040,0.0,4.5,141.0,5.7,'11111222,11111222,11111222' 
TCOON,ioos:station:TCOON:006:1,2008-11-04T10:00:00Z,27.8217,-97.2040,0.0,3.9,140.0,5.4,'11111222,11111222,11111222' 
TCOON,ioos:station:TCOON:006:1,2008-11-04T11:00:00Z,27.8217,-97.2040,0.0,2.6,137.0,3.8,'11111222,11111222,11111222' 
TCOON,ioos:station:TCOON:006:1,2008-11-04T12:00:00Z,27.8217,-97.2040,0.0,2.8,141.0,4.4,'11111222,11111222,11111222' 
TCOON,ioos:station:TCOON:006:1,2008-11-04T13:00:00Z,27.8217,-97.2040,0.0,2.7,127.0,3.7,'11111222,11111222,11111222' 
TCOON,ioos:station:TCOON:006:1,2008-11-04T14:00:00Z,27.8217,-97.2040,0.0,3.9,145.0,4.7,'11111222,11111222,11111222' 
TCOON,ioos:station:TCOON:006:1,2008-11-04T15:00:00Z,27.8217,-97.2040,0.0,4.7,138.0,6.3,'11111222,11111222,11111222' 
TCOON,ioos:station:TCOON:006:1,2008-11-04T16:00:00Z,27.8217,-97.2040,0.0,5.0,130.0,6.3,'11111222,11111222,11111222' 
TCOON,ioos:station:TCOON:006:1,2008-11-04T17:00:00Z,27.8217,-97.2040,0.0,5.2,130.0,7.6,'11111222,11111222,11111222' 
TCOON,ioos:station:TCOON:006:1,2008-11-04T18:00:00Z,27.8217,-97.2040,0.0,4.6,124.0,6.7,'11111222,11111222,11111222' 
TCOON,ioos:station:TCOON:006:1,2008-11-04T19:00:00Z,27.8217,-97.2040,0.0,6.2,120.0,7.5,'11111222,11111222,11111222' 
TCOON,ioos:station:TCOON:006:1,2008-11-04T20:00:00Z,27.8217,-97.2040,0.0,6.0,123.0,8.0,'11111222,11111222,11111222' 
TCOON,ioos:station:TCOON:006:1,2008-11-04T21:00:00Z,27.8217,-97.2040,0.0,5.3,133.0,7.1,'11111222,11111222,11111222' 
TCOON,ioos:station:TCOON:006:1,2008-11-04T22:00:00Z,27.8217,-97.2040,0.0,4.9,126.0,6.9,'11111222,11111222,11111222' 
TCOON,ioos:station:TCOON:006:1,2008-11-04T23:00:00Z,27.8217,-97.2040,0.0,5.3,121.0,6.6,'11111222,11111222,11111222' 
TCOON,ioos:station:TCOON:006:1,2008-11-05T00:00:00Z,27.8217,-97.2040,0.0,4.6,128.0,5.6,'11111222,11111222,11111222' 
TCOON,ioos:station:TCOON:006:1,2008-11-05T01:00:00Z,27.8217,-97.2040,0.0,4.1,129.0,5.7,'11111222,11111222,11111222' 
TCOON,ioos:station:TCOON:006:1,2008-11-05T02:00:00Z,27.8217,-97.2040,0.0,4.4,135.0,6.2,'11111222,11111222,11111222' 
TCOON,ioos:station:TCOON:006:1,2008-11-05T03:00:00Z,27.8217,-97.2040,0.0,4.9,141.0,6.7,'11111222,11111222,11111222' 
TCOON,ioos:station:TCOON:006:1,2008-11-05T04:00:00Z,27.8217,-97.2040,0.0,4.5,143.0,6.1,'11111222,11111222,11111222' 
TCOON,ioos:station:TCOON:006:1,2008-11-05T05:00:00Z,27.8217,-97.2040,0.0,4.9,144.0,6.4,'11111222,11111222,11111222' 
TCOON,ioos:station:TCOON:006:1,2008-11-05T06:00:00Z,27.8217,-97.2040,0.0,5.0,149.0,6.7,'11111222,11111222,11111222' 
TCOON,ioos:station:TCOON:006:1,2008-11-05T07:00:00Z,27.8217,-97.2040,0.0,4.8,149.0,6.2,'11111222,11111222,11111222' 
TCOON,ioos:station:TCOON:006:1,2008-11-05T08:00:00Z,27.8217,-97.2040,0.0,5.3,153.0,7.7,'11111222,11111222,11111222' 
TCOON,ioos:station:TCOON:006:1,2008-11-05T09:00:00Z,27.8217,-97.2040,0.0,6.0,149.0,8.2,'11111222,11111222,11111222' 
TCOON,ioos:station:TCOON:006:1,2008-11-05T10:00:00Z,27.8217,-97.2040,0.0,5.9,148.0,8.2,'11111222,11111222,11111222' 
TCOON,ioos:station:TCOON:006:1,2008-11-05T11:00:00Z,27.8217,-97.2040,0.0,5.7,155.0,8.2,'11111222,11111222,11111222' 
TCOON,ioos:station:TCOON:006:1,2008-11-05T12:00:00Z,27.8217,-97.2040,0.0,5.8,154.0,7.1,'11111222,11111222,11111222' 
TCOON,ioos:station:TCOON:006:1,2008-11-05T13:00:00Z,27.8217,-97.2040,0.0,6.3,152.0,7.5,'11111222,11111222,11111222' 
TCOON,ioos:station:TCOON:006:1,2008-11-05T14:00:00Z,27.8217,-97.2040,0.0,7.5,157.0,9.9,'11111222,11111222,11111222' 
TCOON,ioos:station:TCOON:006:1,2008-11-05T15:00:00Z,27.8217,-97.2040,0.0,7.0,155.0,9.4,'11111222,11111222,11111222' 
TCOON,ioos:station:TCOON:006:1,2008-11-05T16:00:00Z,27.8217,-97.2040,0.0,7.0,155.0,9.2,'11111222,11111222,11111222' 
TCOON,ioos:station:TCOON:006:1,2008-11-05T17:00:00Z,27.8217,-97.2040,0.0,7.0,154.0,9.6,'11111222,11111222,11111222' 
TCOON,ioos:station:TCOON:006:1,2008-11-05T18:00:00Z,27.8217,-97.2040,0.0,7.5,155.0,9.8,'11111222,11111222,11111222' 
TCOON,ioos:station:TCOON:006:1,2008-11-05T19:00:00Z,27.8217,-97.2040,0.0,8.0,141.0,10.5,'11111222,11111222,11111222' 
TCOON,ioos:station:TCOON:006:1,2008-11-05T20:00:00Z,27.8217,-97.2040,0.0,7.7,141.0,11.6,'11111222,11111222,11111222' 
TCOON,ioos:station:TCOON:006:1,2008-11-05T21:00:00Z,27.8217,-97.2040,0.0,7.5,139.0,10.7,'11111222,11111222,11111222' 
TCOON,ioos:station:TCOON:006:1,2008-11-05T22:00:00Z,27.8217,-97.2040,0.0,6.9,141.0,10.7,'11111222,11111222,11111222' 
TCOON,ioos:station:TCOON:006:1,2008-11-05T23:00:00Z,27.8217,-97.2040,0.0,6.8,143.0,9.7,'11111222,11111222,11111222' 
TCOON,ioos:station:TCOON:006:1,2008-11-06T00:00:00Z,27.8217,-97.2040,0.0,7.9,144.0,9.4,'11111222,11111222,11111222' 
TCOON,ioos:station:TCOON:006:1,2008-11-06T01:00:00Z,27.8217,-97.2040,0.0,6.4,147.0,8.4,'11111222,11111222,11111222' 
TCOON,ioos:station:TCOON:006:1,2008-11-06T02:00:00Z,27.8217,-97.2040,0.0,6.4,151.0,9.2,'11111222,11111222,11111222' 
TCOON,ioos:station:TCOON:006:1,2008-11-06T03:00:00Z,27.8217,-97.2040,0.0,6.1,152.0,7.8,'11111222,11111222,11111222' 
TCOON,ioos:station:TCOON:006:1,2008-11-06T04:00:00Z,27.8217,-97.2040,0.0,6.1,153.0,8.8,'11111222,11111222,11111222' 
TCOON,ioos:station:TCOON:006:1,2008-11-06T05:00:00Z,27.8217,-97.2040,0.0,5.9,154.0,8.5,'11111222,11111222,11111222' 
TCOON,ioos:station:TCOON:006:1,2008-11-06T06:00:00Z,27.8217,-97.2040,0.0,5.4,155.0,7.8,'11111222,11111222,11111222' 
TCOON,ioos:station:TCOON:006:1,2008-11-06T07:00:00Z,27.8217,-97.2040,0.0,5.5,161.0,7.5,'11111222,11111222,11111222' 
TCOON,ioos:station:TCOON:006:1,2008-11-06T08:00:00Z,27.8217,-97.2040,0.0,6.1,158.0,7.5,'11111222,11111222,11111222' 
TCOON,ioos:station:TCOON:006:1,2008-11-06T09:00:00Z,27.8217,-97.2040,0.0,4.0,163.0,5.5,'11111222,11111222,11111222' 
TCOON,ioos:station:TCOON:006:1,2008-11-06T10:00:00Z,27.8217,-97.2040,0.0,4.0,160.0,5.9,'11111222,11111222,11111222' 
TCOON,ioos:station:TCOON:006:1,2008-11-06T11:00:00Z,27.8217,-97.2040,0.0,3.0,150.0,3.9,'11111222,11111222,11111222' 
TCOON,ioos:station:TCOON:006:1,2008-11-06T12:00:00Z,27.8217,-97.2040,0.0,3.5,157.0,4.1,'11111222,11111222,11111222' 
TCOON,ioos:station:TCOON:006:1,2008-11-06T13:00:00Z,27.8217,-97.2040,0.0,3.8,151.0,5.3,'11111222,11111222,11111222' 
TCOON,ioos:station:TCOON:006:1,2008-11-06T14:00:00Z,27.8217,-97.2040,0.0,4.5,149.0,5.6,'11111222,11111222,11111222' 
TCOON,ioos:station:TCOON:006:1,2008-11-06T15:00:00Z,27.8217,-97.2040,0.0,1.5,329.0,3.8,'11111222,11111222,11111222' 
TCOON,ioos:station:TCOON:006:1,2008-11-06T16:00:00Z,27.8217,-97.2040,0.0,1.6,229.0,2.2,'11111222,11111222,11111222' 
TCOON,ioos:station:TCOON:006:1,2008-11-06T17:00:00Z,27.8217,-97.2040,0.0,2.9,141.0,4.1,'11111222,11111222,11111222' 
TCOON,ioos:station:TCOON:006:1,2008-11-06T18:00:00Z,27.8217,-97.2040,0.0,3.5,143.0,5.2,'11111222,11111222,11111222' 
TCOON,ioos:station:TCOON:006:1,2008-11-06T19:00:00Z,27.8217,-97.2040,0.0,3.4,142.0,5.0,'11111222,11111222,11111222' 
TCOON,ioos:station:TCOON:006:1,2008-11-06T20:00:00Z,27.8217,-97.2040,0.0,3.9,132.0,5.1,'11111222,11111222,11111222' 
TCOON,ioos:station:TCOON:006:1,2008-11-06T21:00:00Z,27.8217,-97.2040,0.0,3.9,138.0,5.3,'11111222,11111222,11111222' 
TCOON,ioos:station:TCOON:006:1,2008-11-06T22:00:00Z,27.8217,-97.2040,0.0,4.5,148.0,5.7,'11111222,11111222,11111222' 
TCOON,ioos:station:TCOON:006:1,2008-11-06T23:00:00Z,27.8217,-97.2040,0.0,2.6,152.0,4.1,'11111222,11111222,11111222' 
TCOON,ioos:station:TCOON:006:1,2008-11-07T00:00:00Z,27.8217,-97.2040,0.0,0.1,132.0,1.2,'11111222,11111222,11111222' 
TCOON,ioos:station:TCOON:006:1,2008-11-07T01:00:00Z,27.8217,-97.2040,0.0,0.4,338.0,0.6,'11111222,11111222,11111222' 
TCOON,ioos:station:TCOON:006:1,2008-11-07T02:00:00Z,27.8217,-97.2040,0.0,0.7,22.0,1.0,'11111222,11111222,11111222' 
TCOON,ioos:station:TCOON:006:1,2008-11-07T03:00:00Z,27.8217,-97.2040,0.0,0.8,9.0,1.7,'11111222,11111222,11111222' 
TCOON,ioos:station:TCOON:006:1,2008-11-07T04:00:00Z,27.8217,-97.2040,0.0,1.1,18.0,2.0,'11111222,11111222,11111222' 
TCOON,ioos:station:TCOON:006:1,2008-11-07T05:00:00Z,27.8217,-97.2040,0.0,2.0,46.0,3.1,'11111222,11111222,11111222' 
TCOON,ioos:station:TCOON:006:1,2008-11-07T06:00:00Z,27.8217,-97.2040,0.0,1.5,40.0,2.4,'11111222,11111222,11111222' 
TCOON,ioos:station:TCOON:006:1,2008-11-07T07:00:00Z,27.8217,-97.2040,0.0,2.3,26.0,2.9,'11111222,11111222,11111222' 
TCOON,ioos:station:TCOON:006:1,2008-11-07T08:00:00Z,27.8217,-97.2040,0.0,1.7,352.0,4.5,'11111222,11111222,11111222' 
TCOON,ioos:station:TCOON:006:1,2008-11-07T09:00:00Z,27.8217,-97.2040,0.0,1.7,20.0,6.1,'11111222,11111222,11111222' 
TCOON,ioos:station:TCOON:006:1,2008-11-07T10:00:00Z,27.8217,-97.2040,0.0,2.5,19.0,4.6,'11111222,11111222,11111222' 
TCOON,ioos:station:TCOON:006:1,2008-11-07T11:00:00Z,27.8217,-97.2040,0.0,3.7,40.0,6.4,'11111222,11111222,11111222' 
TCOON,ioos:station:TCOON:006:1,2008-11-07T12:00:00Z,27.8217,-97.2040,0.0,1.6,10.0,4.2,'11111222,11111222,11111222' 
TCOON,ioos:station:TCOON:006:1,2008-11-07T13:00:00Z,27.8217,-97.2040,0.0,3.6,23.0,5.8,'11111222,11111222,11111222' 
TCOON,ioos:station:TCOON:006:1,2008-11-07T14:00:00Z,27.8217,-97.2040,0.0,3.3,23.0,6.1,'11111222,11111222,11111222' 
TCOON,ioos:station:TCOON:006:1,2008-11-07T15:00:00Z,27.8217,-97.2040,0.0,5.2,33.0,8.4,'11111222,11111222,11111222' 
TCOON,ioos:station:TCOON:006:1,2008-11-07T16:00:00Z,27.8217,-97.2040,0.0,4.2,29.0,7.8,'11111222,11111222,11111222' 
TCOON,ioos:station:TCOON:006:1,2008-11-07T17:00:00Z,27.8217,-97.2040,0.0,4.7,32.0,7.8,'11111222,11111222,11111222' 
TCOON,ioos:station:TCOON:006:1,2008-11-07T18:00:00Z,27.8217,-97.2040,0.0,5.5,38.0,8.2,'11111222,11111222,11111222' 
TCOON,ioos:station:TCOON:006:1,2008-11-07T19:00:00Z,27.8217,-97.2040,0.0,5.6,52.0,7.8,'11111222,11111222,11111222' 
TCOON,ioos:station:TCOON:006:1,2008-11-07T20:00:00Z,27.8217,-97.2040,0.0,5.4,57.0,8.3,'11111222,11111222,11111222' 
TCOON,ioos:station:TCOON:006:1,2008-11-07T21:00:00Z,27.8217,-97.2040,0.0,5.8,57.0,8.5,'11111222,11111222,11111222' 
TCOON,ioos:station:TCOON:006:1,2008-11-07T22:00:00Z,27.8217,-97.2040,0.0,5.0,66.0,6.7,'11111222,11111222,11111222' 
TCOON,ioos:station:TCOON:006:1,2008-11-07T23:00:00Z,27.8217,-97.2040,0.0,4.1,69.0,7.1,'11111222,11111222,11111222' 
TCOON,ioos:station:TCOON:006:1,2008-11-08T00:00:00Z,27.8217,-97.2040,0.0,3.0,74.0,6.0,'11111222,11111222,11111222' 
TCOON,ioos:station:TCOON:006:1,2008-11-08T01:00:00Z,27.8217,-97.2040,0.0,2.7,73.0,4.3,'11111222,11111222,11111222' 
TCOON,ioos:station:TCOON:006:1,2008-11-08T02:00:00Z,27.8217,-97.2040,0.0,2.2,51.0,3.5,'11111222,11111222,11111222' 
TCOON,ioos:station:TCOON:006:1,2008-11-08T03:00:00Z,27.8217,-97.2040,0.0,1.4,19.0,2.1,'11111222,11111222,11111222' 
TCOON,ioos:station:TCOON:006:1,2008-11-08T04:00:00Z,27.8217,-97.2040,0.0,1.3,25.0,2.3,'11111222,11111222,11111222' 
TCOON,ioos:station:TCOON:006:1,2008-11-08T05:00:00Z,27.8217,-97.2040,0.0,1.6,24.0,2.4,'11111222,11111222,11111222' 
TCOON,ioos:station:TCOON:006:1,2008-11-08T06:00:00Z,27.8217,-97.2040,0.0,2.5,53.0,3.4,'11111222,11111222,11111222' 
TCOON,ioos:station:TCOON:006:1,2008-11-08T07:00:00Z,27.8217,-97.2040,0.0,1.5,23.0,2.4,'11111222,11111222,11111222' 
TCOON,ioos:station:TCOON:006:1,2008-11-08T08:00:00Z,27.8217,-97.2040,0.0,2.0,14.0,2.5,'11111222,11111222,11111222' 
TCOON,ioos:station:TCOON:006:1,2008-11-08T09:00:00Z,27.8217,-97.2040,0.0,1.9,12.0,2.7,'11111222,11111222,11111222' 
TCOON,ioos:station:TCOON:006:1,2008-11-08T10:00:00Z,27.8217,-97.2040,0.0,1.7,9.0,2.6,'11111222,11111222,11111222' 
TCOON,ioos:station:TCOON:006:1,2008-11-08T11:00:00Z,27.8217,-97.2040,0.0,1.5,10.0,2.0,'11111222,11111222,11111222' 
TCOON,ioos:station:TCOON:006:1,2008-11-08T12:00:00Z,27.8217,-97.2040,0.0,1.6,2.0,2.2,'11111222,11111222,11111222' 
TCOON,ioos:station:TCOON:006:1,2008-11-08T13:00:00Z,27.8217,-97.2040,0.0,1.7,354.0,3.0,'11111222,11111222,11111222' 
TCOON,ioos:station:TCOON:006:1,2008-11-08T14:00:00Z,27.8217,-97.2040,0.0,1.4,20.0,2.3,'11111222,11111222,11111222' 
TCOON,ioos:station:TCOON:006:1,2008-11-08T15:00:00Z,27.8217,-97.2040,0.0,2.1,50.0,3.2,'11111222,11111222,11111222' 
TCOON,ioos:station:TCOON:006:1,2008-11-08T16:00:00Z,27.8217,-97.2040,0.0,2.8,71.0,3.7,'11111222,11111222,11111222' 
TCOON,ioos:station:TCOON:006:1,2008-11-08T17:00:00Z,27.8217,-97.2040,0.0,2.5,78.0,3.8,'11111222,11111222,11111222' 
TCOON,ioos:station:TCOON:006:1,2008-11-08T18:00:00Z,27.8217,-97.2040,0.0,3.0,77.0,4.5,'11111222,11111222,11111222' 
TCOON,ioos:station:TCOON:006:1,2008-11-08T19:00:00Z,27.8217,-97.2040,0.0,2.9,79.0,3.4,'11111222,11111222,11111222' 
TCOON,ioos:station:TCOON:006:1,2008-11-08T20:00:00Z,27.8217,-97.2040,0.0,4.0,117.0,4.7,'11111222,11111222,11111222' 
TCOON,ioos:station:TCOON:006:1,2008-11-08T21:00:00Z,27.8217,-97.2040,0.0,3.9,117.0,5.5,'11111222,11111222,11111222' 
TCOON,ioos:station:TCOON:006:1,2008-11-08T22:00:00Z,27.8217,-97.2040,0.0,3.9,116.0,5.2,'11111222,11111222,11111222' 
TCOON,ioos:station:TCOON:006:1,2008-11-08T23:00:00Z,27.8217,-97.2040,0.0,4.1,114.0,5.6,'11111222,11111222,11111222' 
TCOON,ioos:station:TCOON:006:1,2008-11-09T00:00:00Z,27.8217,-97.2040,0.0,4.5,117.0,5.8,'11111222,11111222,11111222' 
TCOON,ioos:station:TCOON:006:1,2008-11-09T01:00:00Z,27.8217,-97.2040,0.0,4.7,119.0,5.6,'11111222,11111222,11111222' 
TCOON,ioos:station:TCOON:006:1,2008-11-09T02:00:00Z,27.8217,-97.2040,0.0,4.3,123.0,5.1,'11111222,11111222,11111222' 
TCOON,ioos:station:TCOON:006:1,2008-11-09T03:00:00Z,27.8217,-97.2040,0.0,3.9,126.0,4.9,'11111222,11111222,11111222' 
TCOON,ioos:station:TCOON:006:1,2008-11-09T04:00:00Z,27.8217,-97.2040,0.0,4.4,126.0,5.2,'11111222,11111222,11111222' 
TCOON,ioos:station:TCOON:006:1,2008-11-09T05:00:00Z,27.8217,-97.2040,0.0,3.8,125.0,5.1,'11111222,11111222,11111222' 
TCOON,ioos:station:TCOON:006:1,2008-11-09T06:00:00Z,27.8217,-97.2040,0.0,3.5,111.0,4.6,'11111222,11111222,11111222' 
TCOON,ioos:station:TCOON:006:1,2008-11-09T07:00:00Z,27.8217,-97.2040,0.0,3.6,130.0,5.2,'11111222,11111222,11111222' 
TCOON,ioos:station:TCOON:006:1,2008-11-09T08:00:00Z,27.8217,-97.2040,0.0,4.4,120.0,5.5,'11111222,11111222,11111222' 
TCOON,ioos:station:TCOON:006:1,2008-11-09T09:00:00Z,27.8217,-97.2040,0.0,4.1,117.0,5.7,'11111222,11111222,11111222' 
TCOON,ioos:station:TCOON:006:1,2008-11-09T10:00:00Z,27.8217,-97.2040,0.0,3.9,118.0,4.4,'11111222,11111222,11111222' 
TCOON,ioos:station:TCOON:006:1,2008-11-09T11:00:00Z,27.8217,-97.2040,0.0,2.8,93.0,3.6,'11111222,11111222,11111222' 
TCOON,ioos:station:TCOON:006:1,2008-11-09T12:00:00Z,27.8217,-97.2040,0.0,3.3,103.0,4.9,'11111222,11111222,11111222' 